Tracking 19562 objects as of 24-Mar-2019
HD Live streaming from Space Station
objects crossing your sky now

COSMOS 1383

Track COSMOS 1383 now!
10-day predictions
COSMOS 1383 is classified as:


NORAD ID: 13301
Int'l Code: 1982-066A
Perigee: 991.6 km
Apogee: 1,031.3 km
Inclination: 82.9 °
Period: 105.2 minutes
Semi major axis: 7382 km
RCS: 2.8382 m2 (large)
Launch date: June 29, 1982
Source: Commonwealth of Independent States (former USSR) (CIS)
Launch site: PLESETSK MISSILE AND SPACE COMPLEX (PKMTR)
aabbcc
Your satellite tracking list
Your tracking list is empty




NASA's NSSDC Master Catalog

Two Line Element Set (TLE):
1 13301U 82066A   19083.24569458  .00000046  00000-0  36012-4 0  9990
2 13301  82.9331 153.4278 0026902 351.3328  67.4147 13.68673574834587
Source of the keplerian elements: AFSPC